Simultaneous Nadir Overpasses (SNOs) Predictions

Prediction of SNOs between GOES-16 and NOAA-20 Satellite Orbit:

Table of predicted SNOs for the next 14.0 days since TLE Epoch: 6/4/2022
Index Date Time (GOES-16) GOES-16 Lat,Lon NOAA-20 Lat,Lon Distance(km) Time Diff (sec)
1 06/05/2022 06:39:08 0.00, -75.19 0.61, -78.02 321.45 80
2 06/06/2022 06:17:43 -0.00, -75.20 -0.38, -73.48 195.34 80
3 06/07/2022 18:42:19 -0.00, -75.21 -0.79, -78.79 407.83 80
4 06/08/2022 18:20:54 -0.00, -75.22 0.20, -74.25 109.44 80
5 06/10/2022 06:45:21 0.00, -75.23 0.96, -79.52 489.66 80
6 06/11/2022 06:23:56 -0.00, -75.24 -0.03, -74.99 27.78 80
7 06/13/2022 18:29:47 0.01, -75.26 -0.09, -75.77 58.02 80
8 06/14/2022 18:10:38 0.01, -75.27 0.90, -71.24 459.43 56
9 06/16/2022 06:32:49 -0.01, -75.28 0.25, -76.51 139.45 80
10 06/17/2022 06:11:24 -0.01, -75.29 -0.74, -71.97 378.26 80
